Location: Forst
(46.9333°N, 15.4333°E)
Time: 06:32:14
(UTC+00:00)

Lacrosse 5 rocket - Pass Details

Date: 22 April 2021
Orbit: 460 x 634 km, 57.0° (Epoch: 12 May)

Event Time Altitude Azimuth Distance (km) Brightness Sun altitude
Rises 22:21:45 0° 306° (NW) 2,806 5.5 -30.0°
Reaches altitude 10° 22:23:59 10° 304° (WNW) 1,929 4.6 -30.1°
Enters shadow 22:25:35 22° 299° (WNW) 1,333 3.6 -30.1°
